Location: Unspecified
(48.8656°N, 0.0000°E)
Time: 11:19:50
(UTC+00:00)

SR - Pass Details

Date: 27 June 2019
Orbit: 575 x 881 km, 66.7° (Epoch: 16 October)

Event Time Altitude Azimuth Distance (km) Brightness Sun altitude
Rises 09:17:15 0° 328° (NNW) 2,953 ? 48.7°
Reaches altitude 10° 09:19:51 10° 343° (NNW) 2,089 ? 49.1°
Maximum altitude 09:23:44 24° 38° (NE) 1,418 ? 49.7°
Drops below altitude 10° 09:27:53 10° 93° (E) 2,245 ? 50.3°
Sets 09:30:47 0° 106° (ESE) 3,226 ? 50.7°
